RH
96 91 79 72 68 57 43 31 16 7 9 12 10 12 15 16 14 11 10 11 10 10 10 10 11 11 11 12 12 13 14 15 16 17 18 19 19 18 17 17 17 19 19 19 19 20 20 21 22 19 15 16 19 18 18 20 17 14 14 14 17 21 25 29 30 33 39 43 48 52 55 60 67 70 73 73 70 70 72 74 75 75 77 79 78
83 83 83 87 91 81 65 51 32 13 8 9 9 9 11 12 11 10 10 11 10 10 10 10 11 11 11 12 12 13 14 14 15 16 17 17 17 16 15 14 15 16 16 17 19 21 22 23 22 18 14 14 16 16 15 16 14 12 13 16 18 20 24 29 30 32 36 40 46 53 58 63 66 69 71 73 74 73 71 68 64 59 61 66 74
67 70 74 79 87 90 86 77 56 27 10 8 10 9 9 10 10 10 10 10 11 11 11 11 11 11 12 12 12 13 13 14 14 15 16 15 15 14 13 12 13 14 14 15 17 19 21 23 23 21 19 17 17 17 16 20 25 25 19 18 20 23 25 28 29 32 40 46 51 56 60 63 64 65 65 66 66 64 60 56 50 46 48 52 55
42 52 60 66 72 78 85 89 80 54 24 8 8 10 10 10 9 10 10 10 11 11 10 11 12 11 12 12 12 12 12 12 12 12 12 12 12 12 11 11 12 12 13 14 15 18 20 22 24 25 28 28 22 18 19 28 39 40 29 21 22 24 26 28 31 36 47 58 62 62 62 62 61 60 58 56 56 55 54 52 45 38 38 42 45
18 25 33 43 52 59 67 76 81 78 55 24 9 9 10 11 10 10 10 10 10 11 11 11 11 12 12 12 11 11 11 11 11 10 11 10 10 10 10 10 10 10 11 12 13 15 17 20 22 24 29 31 24 19 23 31 39 40 30 23 23 23 23 26 28 32 41 52 62 64 62 60 58 55 51 49 48 49 51 53 51 45 39 39 43
9 11 13 18 26 34 44 51 59 77 80 50 21 16 19 19 15 9 10 11 10 10 11 11 11 11 12 11 11 10 10 9 9 8 8 8 8 9 8 8 9 9 9 10 11 13 15 19 21 21 23 24 21 23 29 33 36 37 32 28 30 29 25 21 19 22 27 35 43 49 53 55 55 52 50 50 50 50 50 51 53 54 50 46 45
8 9 8 9 11 15 23 31 38 62 86 75 51 45 47 41 30 17 9 9 11 11 10 10 11 11 11 11 10 10 9 8 8 7 7 7 7 7 8 8 8 8 8 8 9 10 11 16 20 21 19 18 19 23 30 35 41 44 41 39 41 42 39 32 23 19 22 25 27 32 39 46 51 52 55 57 57 53 48 47 50 54 56 54 51
9 9 9 8 9 10 12 17 21 38 70 86 83 80 75 65 54 42 24 12 8 10 11 10 10 10 10 10 9 9 8 7 7 6 6 6 6 7 7 8 8 8 8 8 8 9 10 13 17 19 17 17 17 19 23 32 41 45 43 42 42 45 51 52 45 38 36 36 34 35 38 44 50 55 57 55 49 42 37 38 42 50 57 60 59
9 9 9 8 8 8 8 10 10 15 37 64 82 90 90 82 72 63 51 34 19 10 8 9 10 9 9 9 8 8 7 7 7 7 7 6 6 6 6 7 8 8 8 8 7 7 8 10 13 15 14 14 15 16 19 27 34 35 33 34 34 37 43 51 57 60 58 51 44 42 44 44 44 43 41 38 33 30 29 28 31 43 56 63 63
10 8 9 9 8 8 7 7 8 8 15 30 45 61 76 85 85 81 77 68 51 30 16 10 9 9 8 8 7 7 7 7 6 6 6 6 6 6 6 6 7 7 8 8 8 8 8 8 9 10 11 11 11 11 14 21 27 26 21 19 17 16 18 27 43 58 67 68 62 55 49 43 41 40 39 39 38 35 31 26 27 36 46 55 58
12 10 9 8 8 9 8 7 7 7 8 13 19 27 41 57 71 80 86 89 84 70 52 37 26 18 14 12 10 8 7 8 8 7 7 7 6 6 6 6 6 7 7 7 7 7 7 7 7 7 8 9 10 10 11 14 15 14 12 11 10 10 8 9 18 30 46 60 66 63 58 53 48 41 36 34 33 32 27 22 23 31 38 43 41
13 12 10 9 8 8 8 8 7 6 7 7 9 13 21 34 47 57 66 76 85 88 84 75 61 46 36 32 25 16 9 6 6 6 5 5 6 6 6 6 7 6 6 7 7 7 7 7 11 14 12 7 7 7 8 9 10 10 9 8 7 8 8 7 7 11 20 34 48 57 59 51 36 21 13 12 12 14 14 12 15 25 31 33 33
13 14 12 10 9 8 7 8 7 7 7 7 6 7 13 26 36 39 41 47 59 72 82 87 85 75 66 60 50 37 28 24 22 21 19 12 6 5 6 7 7 7 8 7 6 6 6 6 13 24 26 20 17 17 15 12 11 8 8 13 14 9 7 7 6 7 10 17 26 32 31 24 15 8 6 7 6 6 7 7 10 16 21 32 52
11 13 14 12 10 8 8 8 7 7 6 6 7 6 6 12 17 20 23 27 34 44 57 70 80 82 81 78 71 65 62 63 62 63 58 42 22 11 8 7 6 7 10 11 11 10 9 6 7 12 17 21 28 36 38 35 31 23 17 22 22 12 6 7 6 6 7 8 9 10 8 7 6 6 6 6 5 6 7 7 10 11 18 43 76
11 11 13 14 12 9 8 8 7 7 7 6 6 6 6 6 7 9 12 15 19 24 31 42 53 62 70 77 81 82 83 83 82 83 85 78 60 44 32 23 15 11 9 9 11 12 12 12 11 8 10 19 22 23 29 38 48 54 50 40 26 11 6 7 7 6 7 6 6 6 6 6 7 6 7 7 6 7 8 11 15 14 18 40 68
12 11 11 13 14 11 9 8 8 7 7 7 6 5 6 6 6 6 7 8 11 14 17 22 29 38 47 57 67 77 82 83 80 79 81 84 84 80 72 61 51 41 31 21 14 13 11 11 11 10 20 36 32 15 10 16 26 40 51 49 37 24 14 9 8 9 9 7 6 6 7 7 7 7 7 7 7 7 10 14 19 22 24 32 45
12 11 10 11 13 13 10 8 8 8 8 7 7 6 6 6 5 5 5 6 7 8 10 13 16 21 27 33 42 56 67 72 72 72 71 72 77 84 88 88 85 78 71 60 49 45 41 34 23 11 13 30 33 16 6 8 9 12 21 28 30 27 20 13 10 10 10 9 8 7 7 7 8 8 8 8 7 7 10 15 21 26 33 40 49
13 11 10 10 12 13 12 9 8 8 9 8 8 7 6 6 6 5 5 5 5 5 7 8 9 12 15 19 24 33 43 53 58 61 62 59 60 65 75 87 95 94 93 88 82 81 82 76 65 49 37 39 40 28 16 13 12 9 10 11 13 14 14 14 13 11 10 11 10 9 9 8 9 9 8 9 11 12 16 23 31 38 45 53 63
12 11 10 10 12 13 13 11 8 8 8 8 8 8 7 6 6 6 6 6 5 5 5 4 6 7 8 11 15 19 26 35 42 46 49 51 51 51 55 64 75 85 95 97 94 95 95 92 91 88 80 72 69 66 62 55 48 45 43 40 35 27 17 12 12 13 12 12 11 11 10 10 10 11 15 25 35 41 44 47 51 57 64 70 75
12 11 10 11 13 14 14 12 9 8 7 7 7 8 8 7 7 6 6 6 6 6 6 5 5 5 5 6 8 12 17 23 28 32 36 42 46 47 49 52 56 70 91 102 99 94 91 89 90 91 89 86 87 91 92 89 87 87 87 85 81 73 59 44 36 35 33 28 22 19 20 24 27 27 31 47 64 72 74 77 79 81 82 83 81
13 13 13 13 14 14 14 12 10 8 7 7 8 8 7 7 7 7 6 6 6 6 5 5 5 5 5 5 5 6 9 12 18 23 26 31 36 40 53 64 65 69 84 92 90 87 92 96 93 86 85 90 95 97 94 92 94 97 99 98 95 93 91 87 80 77 74 65 54 50 56 65 71 68 62 67 77 81 83 88 94 95 92 89 88
17 16 16 16 16 15 14 12 10 9 8 7 8 8 8 8 8 8 7 6 6 6 6 6 6 5 5 6 5 5 5 6 9 13 16 21 26 31 43 60 69 72 76 75 70 72 85 95 94 89 89 93 96 96 93 90 92 95 98 101 99 97 98 100 99 97 97 93 87 86 90 94 97 94 87 84 87 88 88 92 97 98 96 96 96
21 21 20 19 18 16 14 12 10 9 9 8 8 8 8 8 8 8 8 7 6 6 6 6 6 6 6 6 6 5 6 5 5 6 8 11 16 22 28 37 48 57 65 67 63 63 71 78 80 81 87 93 94 93 92 93 94 95 95 97 100 100 99 98 99 100 100 100 99 99 100 99 94 88 86 91 97 98 96 97 98 99 99 99 99
23 23 22 21 19 16 14 13 11 10 9 9 9 9 9 9 9 8 8 8 7 7 7 6 6 6 6 6 7 6 6 6 5 5 5 5 7 13 18 24 29 36 45 53 55 58 62 66 67 72 81 90 94 94 96 97 95 95 96 96 98 100 99 99 100 100 99 99 99 99 100 98 93 88 88 94 99 100 99 99 100 100 100 99 100
24 23 22 20 18 16 14 12 11 11 11 11 10 10 10 9 9 8 8 8 8 7 7 7 7 7 7 7 7 7 7 7 6 6 5 5 5 5 8 14 19 24 30 33 37 45 51 56 61 69 78 85 88 92 96 94 91 94 97 97 99 100 97 98 101 100 98 99 100 99 100 98 96 97 99 99 100 100 100 100 99 99 99 99 100
23 22 21 19 17 16 14 13 12 12 12 12 11 10 10 9 9 9 8 8 8 7 8 7 7 7 7 6 6 7 7 7 7 7 6 6 6 5 5 7 11 18 24 28 33 40 46 54 64 74 81 84 83 87 94 96 98 104 98 89 95 100 94 92 99 99 96 99 100 99 100 100 99 100 100 100 100 100 99 99 99 99 99 100 100
22 20 19 18 17 16 14 13 13 13 12 12 11 11 10 10 9 9 8 8 7 7 7 7 7 8 8 8 8 8 7 7 7 8 8 7 6 6 5 5 8 14 22 32 42 47 53 68 81 87 91 91 84 84 91 93 96 104 98 86 93 101 92 88 98 100 97 99 100 99 100 100 100 100 100 100 100 99 98 99 100 100 100 100 99
21 20 19 18 17 16 15 14 14 13 12 11 11 10 10 9 9 8 8 8 9 10 10 11 13 14 14 15 14 14 13 11 9 8 8 8 7 7 6 7 9 14 23 35 44 49 64 86 97 96 97 96 90 91 97 92 89 96 100 95 99 103 96 93 98 100 99 99 99 99 100 100 100 100 100 100 100 99 99 100 100 100 100 100 98
21 19 18 18 17 16 15 14 13 13 13 13 13 12 11 10 10 10 11 13 15 19 21 21 19 18 16 15 15 14 15 15 14 12 10 8 8 7 7 8 10 14 20 22 23 38 70 96 100 95 95 96 93 93 95 93 91 95 98 96 96 97 97 99 101 100 99 100 99 99 100 100 100 100 100 100 100 100 99 98 97 95 93 89 85
21 20 18 17 17 16 15 14 15 20 24 26 27 26 24 23 22 23 24 27 29 30 30 26 22 19 17 16 16 15 15 14 14 13 11 9 9 8 7 8 8 11 13 10 12 34 67 84 81 73 68 66 69 77 82 88 96 101 99 96 93 90 91 97 101 100 99 99 99 100 100 100 100 100 99 98 96 93 90 86 82 78 74 69 63
20 20 18 18 18 20 21 23 30 38 43 43 44 44 43 41 40 39 39 39 39 38 36 33 28 24 22 23 25 26 26 24 22 19 17 15 13 11 10 9 9 9 9 10 14 27 40 43 43 46 50 54 64 79 88 94 99 101 97 95 94 94 95 98 100 100 100 100 101 100 99 98 96 93 89 86 82 79 76 71 66 62 58 53 49
20 19 20 21 25 30 36 44 51 55 55 52 52 52 50 47 45 44 43 43 43 43 43 43 42 39 35 33 33 34 38 41 41 40 39 36 34 32 29 27 26 23 20 18 18 20 23 26 29 41 62 81 90 96 101 101 97 94 94 95 98 99 99 97 97 97 97 95 92 89 86 84 82 80 76 73 69 67 63 59 56 52 48 44 40
20 21 25 32 40 48 58 66 68 66 61 59 57 53 49 47 45 44 44 44 44 45 46 46 46 47 46 46 45 44 45 47 50 52 55 55 54 52 51 51 51 50 48 46 44 43 46 52 54 58 75 93 98 95 96 93 85 80 84 90 94 93 90 86 85 83 81 78 74 73 73 73 72 70 67 64 61 58 54 50 46 42 37 33 29
20 25 39 55 66 74 81 82 78 72 67 62 58 53 49 47 46 44 44 44 44 44 45 44 44 45 47 49 52 54 55 56 58 60 63 64 65 65 63 62 61 60 59 60 62 63 68 76 82 84 88 91 88 82 80 76 71 68 70 71 73 73 71 68 66 64 62 62 61 61 62 61 58 55 52 49 45 41 37 33 29 25 22 21 19
20 33 58 79 88 92 94 88 80 73 67 60 55 52 49 47 45 44 43 43 43 42 42 42 42 42 42 44 47 51 55 57 60 62 63 66 70 73 74 74 74 74 75 75 76 78 81 85 88 88 86 84 78 69 61 56 54 55 54 53 52 52 51 50 48 47 46 45 43 42 40 38 35 32 30 27 24 22 20 19 17 17 17 16 16
21 39 71 92 97 97 95 86 76 69 64 58 53 50 48 46 45 44 42 41 41 40 39 39 39 39 39 40 41 42 44 46 48 50 52 55 58 60 64 67 71 75 79 80 79 79 80 78 72 66 62 60 56 51 45 41 39 38 37 36 36 35 34 33 31 28 25 23 21 20 18 17 16 15 15 15 15 15 15 16 16 16 16 16 15
26 51 81 98 99 96 89 79 72 66 62 58 54 51 49 48 46 45 44 42 40 39 38 37 37 37 37 37 38 38 38 38 38 39 40 40 42 43 45 48 51 55 59 61 60 59 57 54 49 44 41 38 36 32 28 26 24 22 21 20 19 18 17 17 15 13 11 10 10 10 9 10 10 11 12 13 14 15 16 17 17 17 17 17 17
32 61 89 99 95 90 82 76 72 69 64 60 57 54 53 53 50 49 48 47 45 43 41 39 38 37 36 37 37 37 37 35 34 33 32 32 32 32 32 33 34 36 38 39 39 38 37 35 33 31 29 27 25 23 19 16 14 13 12 11 10 10 9 9 9 8 9 9 9 9 10 10 11 12 13 15 16 17 17 18 18 18 18 17 17
32 61 87 93 86 82 80 78 76 74 71 68 64 61 60 59 58 58 57 55 54 52 50 47 44 42 40 39 39 38 37 35 34 32 30 29 28 28 28 27 26 26 26 26 26 26 25 24 24 23 22 21 20 19 17 16 14 13 11 10 8 8 7 7 8 8 8 9 10 10 12 13 13 14 15 16 17 17 18 18 19 18 18 18 18
33 57 82 88 81 77 79 80 79 78 77 74 71 68 67 66 66 67 67 67 66 64 61 57 53 51 49 47 45 42 39 36 36 34 32 30 29 28 28 27 26 24 24 23 21 20 19 19 19 19 19 20 19 18 18 16 15 13 12 10 8 7 7 8 8 8 9 10 11 13 14 15 16 16 17 17 18 18 19 20 20 20 20 19 18
40 57 75 84 81 78 78 79 77 75 76 75 73 72 71 70 70 72 73 74 74 75 73 69 65 62 60 58 55 51 46 43 41 39 37 35 34 32 31 30 29 27 26 24 22 19 18 18 18 18 18 19 19 18 17 15 13 11 10 8 8 8 8 8 9 10 11 12 14 16 17 17 18 18 19 19 19 19 20 21 22 22 21 20 18
45 56 67 79 83 80 77 77 76 73 72 71 71 72 72 72 72 72 72 72 74 77 79 79 76 74 71 68 65 62 58 55 52 49 47 44 42 39 37 35 34 32 31 29 27 25 23 23 23 23 23 22 20 17 14 11 10 9 9 8 9 9 10 11 12 13 14 15 17 18 19 19 19 19 19 20 20 20 20 20 21 21 21 19 18
40 45 55 72 85 85 84 85 83 79 77 77 76 76 76 76 75 75 74 73 74 76 79 82 83 83 81 79 77 73 70 67 65 63 60 58 55 51 49 46 44 42 40 37 35 33 32 31 30 27 24 20 16 12 10 9 9 9 9 10 11 11 12 13 14 16 17 18 19 19 20 20 19 20 21 22 22 21 20 19 20 21 21 20 20
37 39 48 65 81 87 90 90 87 84 86 89 89 89 87 84 83 83 82 80 80 81 82 82 83 86 88 89 88 84 80 77 74 72 69 67 65 64 62 58 54 51 49 47 44 40 35 31 26 21 17 13 11 10 9 9 10 11 12 12 13 14 15 16 18 20 20 20 20 20 20 19 19 21 22 22 22 21 20 20 21 22 22 22 24
38 42 49 59 71 79 83 84 82 81 84 86 89 91 92 91 90 91 90 88 87 88 88 85 83 84 87 90 90 88 84 81 80 79 76 73 71 70 68 65 61 59 55 49 42 34 26 20 16 13 11 10 10 10 11 12 13 14 15 16 16 17 18 20 22 23 23 21 21 20 19 18 19 20 21 22 22 22 22 22 22 22 22 23 25
34 38 44 52 61 69 75 80 85 91 95 95 94 94 93 92 91 91 91 90 87 85 87 90 89 86 85 86 87 86 84 83 83 82 80 76 74 72 69 67 65 61 53 42 31 23 17 13 12 11 11 12 13 14 15 16 18 18 18 18 19 20 22 24 25 25 24 22 21 19 18 17 18 19 21 22 22 22 21 21 21 21 21 22 24
32 31 34 40 47 54 58 63 71 81 86 86 85 85 85 87 90 92 91 89 85 82 85 90 93 91 88 84 83 84 85 84 83 82 78 74 71 68 67 67 63 53 40 28 21 17 14 13 13 14 15 16 18 19 20 21 21 20 20 20 21 23 26 28 28 28 26 23 20 18 17 17 17 18 19 20 20 20 20 20 21 22 22 23 26
33 30 29 31 34 39 41 43 48 54 57 58 61 65 67 71 76 79 79 80 83 86 90 96 98 96 90 86 87 88 88 86 84 81 76 71 68 67 68 65 55 41 28 21 17 16 15 15 16 18 20 22 23 24 24 23 21 21 21 22 24 27 30 32 32 30 27 23 20 18 17 16 16 17 17 18 19 20 21 21 22 23 25 27 32
39 33 29 27 27 28 29 30 32 36 39 42 46 49 50 51 55 57 59 64 73 82 89 95 95 90 86 88 93 94 91 88 86 82 77 73 71 69 64 54 41 29 22 18 17 16 16 17 19 21 24 26 27 26 24 23 22 22 24 26 29 33 35 36 35 32 29 25 22 19 18 17 16 17 18 19 21 21 21 22 23 25 29 34 39
46 40 35 32 29 27 26 25 25 26 28 30 33 35 36 38 42 45 48 55 64 72 78 82 82 81 84 91 95 93 91 90 88 83 78 74 69 61 49 38 28 22 19 17 17 18 18 19 22 26 29 31 30 27 25 24 25 26 28 31 35 39 41 41 38 34 30 26 22 19 17 16 16 18 20 21 23 23 24 25 27 30 35 41 46
54 48 44 41 37 33 31 29 27 26 27 27 27 29 30 33 36 38 42 49 60 71 79 83 85 86 90 94 93 91 91 91 88 83 78 70 58 45 34 26 21 19 18 18 18 19 20 23 28 33 35 34 31 29 27 27 28 29 33 37 42 45 45 42 38 32 26 22 18 16 16 17 18 21 23 25 27 29 30 32 35 39 45 49 53
Wind_Speed
14 14 14 14 14 14 14 14 14 13 13 12 13 14 14 15 16 17 18 18 18 18 18 17 16 16 15 15 15 15 14 14 14 14 13 12 12 11 11 12 12 12 13 13 13 13 14 14 14 15 15 13 11 11 11 10 9 8 8 8 8 8 8 7 6 5 4 3 2 3 3 3 4 4 5 6 6 5 6 5 5 6 7 6 6
17 16 15 15 15 15 15 15 16 15 15 14 13 13 14 15 15 16 16 17 17 17 17 16 16 15 15 15 15 15 14 14 14 14 13 13 12 12 13 13 13 13 13 14 14 14 14 15 15 15 13 12 12 12 12 11 10 9 9 8 9 8 8 8 7 6 6 6 5 5 5 5 5 5 6 7 7 7 7 7 6 6 7 7 6
19 18 17 16 16 16 16 17 17 17 17 17 16 15 15 15 15 15 16 16 16 16 16 16 15 15 14 15 15 14 14 14 14 14 13 13 13 14 14 14 14 14 15 15 14 15 15 15 15 14 14 13 13 13 12 11 11 10 9 9 9 9 8 7 7 7 7 7 8 8 8 8 8 8 8 8 8 9 10 10 9 8 8 9 8
19 19 19 18 18 17 17 17 18 19 20 20 19 18 17 17 16 16 16 15 15 16 16 15 15 14 14 15 15 15 14 14 14 14 14 14 14 15 15 15 15 16 16 16 16 16 16 15 15 15 15 14 14 13 13 12 12 11 10 9 8 8 8 7 8 8 8 8 9 9 9 10 10 10 10 10 10 11 12 12 12 11 10 10 10
16 18 20 20 20 19 19 18 18 21 23 22 21 19 18 17 17 17 17 16 16 16 16 15 15 14 15 15 16 15 15 15 14 14 14 14 14 15 15 16 16 17 17 17 17 17 17 16 15 16 16 16 14 13 13 13 13 12 11 9 8 8 8 9 9 10 10 10 10 10 10 10 11 12 13 12 12 13 13 14 14 13 12 12 12
13 15 17 19 20 20 20 20 19 20 22 24 22 19 18 18 18 18 18 17 17 17 17 16 16 16 16 16 16 16 15 15 15 15 15 14 15 15 15 16 17 18 18 19 19 19 18 17 16 16 17 16 15 14 14 14 14 13 12 11 10 9 10 11 11 11 11 11 11 12 12 12 12 12 13 13 14 15 15 16 16 15 14 14 14
13 13 15 17 19 19 20 21 21 19 19 22 22 20 19 19 19 20 19 19 18 18 18 18 18 18 18 18 17 17 16 16 16 16 16 15 16 16 16 16 17 18 19 19 19 19 18 17 17 17 17 17 17 16 15 15 15 14 13 13 12 12 12 13 13 13 13 13 13 13 14 14 13 13 13 14 15 17 17 18 18 18 17 16 16
13 14 15 15 16 17 18 20 21 20 18 20 21 21 21 22 22 22 21 21 21 21 21 21 21 20 20 20 19 19 18 17 17 17 17 17 17 17 17 17 18 18 18 19 19 18 18 18 18 18 18 19 18 18 17 16 16 16 16 16 15 15 15 15 15 14 14 14 14 14 15 15 15 15 15 15 16 17 18 18 19 20 19 18 17
14 15 15 16 16 16 17 18 19 20 20 19 19 20 22 24 25 24 23 23 23 23 24 24 23 23 22 22 21 20 19 19 19 19 19 19 18 18 19 18 19 19 19 19 19 18 18 18 18 18 19 19 20 20 19 17 17 17 18 18 18 18 19 18 17 16 16 16 15 15 16 16 16 16 16 16 16 17 18 18 19 20 20 19 18
14 15 16 17 17 17 17 17 17 18 18 19 21 22 22 23 24 25 24 25 25 25 26 26 26 25 25 25 24 22 21 21 21 21 21 20 20 20 20 20 20 20 19 19 19 20 20 20 20 20 20 20 21 21 20 19 19 19 19 19 20 20 20 21 20 20 19 18 18 17 17 17 17 17 18 18 18 18 18 19 19 20 21 21 20
12 14 16 18 18 18 18 18 18 17 16 18 21 24 23 23 23 24 24 24 25 27 27 27 28 28 27 27 26 25 24 24 24 23 23 22 22 21 21 21 21 21 21 21 21 21 21 21 21 20 20 21 21 22 22 21 21 21 20 21 22 22 22 22 22 22 22 22 21 20 20 20 20 19 19 20 21 21 21 21 21 21 22 22 22
11 13 15 17 19 20 20 19 19 18 17 18 20 22 22 23 24 24 24 25 25 26 27 28 29 29 29 27 27 26 26 26 26 26 25 25 24 24 23 22 22 23 23 23 23 23 23 22 22 21 21 21 22 23 23 23 23 23 22 23 23 23 23 23 22 22 23 23 24 23 23 23 23 22 22 22 22 22 23 23 23 23 23 23 24
12 13 14 16 18 20 21 21 21 20 19 19 19 20 21 22 24 25 26 26 26 27 27 28 29 30 29 28 27 27 27 27 28 27 27 27 27 26 25 24 23 24 24 25 25 25 24 24 24 23 23 23 23 24 24 25 25 24 24 25 25 24 24 24 23 23 23 23 24 25 25 25 25 25 25 25 25 24 25 25 25 24 24 24 24
13 14 14 15 17 19 22 22 22 22 21 21 20 20 20 21 23 25 26 27 27 28 29 29 29 29 28 28 28 28 28 28 29 28 28 28 28 27 26 25 25 25 26 26 26 26 26 26 25 25 25 25 25 26 26 26 26 26 26 26 26 26 26 26 26 25 25 26 26 27 27 28 28 28 28 28 27 27 27 27 27 26 24 24 24
15 15 15 16 16 18 21 23 23 23 23 22 22 22 21 21 22 24 26 27 28 28 29 30 29 29 29 28 28 28 28 29 29 28 28 28 29 28 27 26 26 26 27 28 28 28 28 27 27 27 26 26 28 28 27 27 27 27 27 28 28 29 29 29 29 29 28 29 29 30 30 30 30 30 30 30 30 29 29 29 29 28 26 25 26
18 18 17 17 17 18 20 23 25 25 24 23 23 23 23 22 22 23 24 25 26 27 29 29 30 30 30 30 29 29 29 30 29 28 28 29 29 30 29 28 27 28 29 29 29 29 29 29 29 28 27 29 31 31 30 29 29 29 30 30 31 32 32 33 33 32 32 32 33 33 33 33 33 33 32 32 32 32 31 31 31 30 29 29 30
21 21 20 20 19 19 19 21 24 25 25 24 24 24 24 24 23 23 22 23 24 25 27 28 29 30 31 31 30 29 30 31 31 30 30 30 30 32 32 31 30 30 30 30 30 30 29 30 31 31 30 31 33 34 34 33 32 32 33 33 34 35 36 36 36 36 35 35 35 36 36 36 36 35 35 35 34 34 34 33 33 33 32 33 33
23 23 22 22 21 20 19 20 22 25 26 25 25 24 24 24 24 24 23 23 23 23 24 25 27 28 30 30 30 30 31 32 32 32 33 32 32 33 33 33 32 31 30 30 31 31 31 31 31 32 32 33 36 38 37 36 35 35 35 36 37 38 39 39 40 39 39 38 38 39 38 38 38 38 37 37 37 37 36 35 35 34 34 35 35
24 24 24 23 23 22 21 21 21 24 26 27 26 26 25 25 25 25 24 24 24 23 23 23 24 25 26 27 28 30 31 32 33 33 34 35 35 35 35 33 32 31 30 30 31 33 34 33 32 33 34 35 37 39 39 38 38 39 39 39 40 42 42 43 43 42 41 41 41 41 41 41 40 39 38 38 38 37 37 36 36 36 36 37 37
25 25 24 24 23 23 22 22 22 22 24 26 27 27 26 26 26 26 26 26 26 25 24 24 24 24 24 25 27 28 30 32 33 34 35 36 37 37 36 33 31 31 32 33 33 33 34 36 37 37 38 38 39 39 38 37 38 40 41 42 45 46 44 44 45 45 43 42 43 42 42 42 41 40 38 38 39 38 38 38 38 38 38 38 38
25 25 25 24 24 23 23 22 22 22 23 25 26 26 27 27 27 27 27 27 27 27 27 26 25 25 26 26 27 28 29 31 32 34 35 36 37 37 36 35 35 35 36 36 35 35 37 39 39 38 40 42 42 40 39 39 41 43 43 44 47 48 46 44 45 44 42 42 42 42 42 42 42 40 39 39 40 40 39 38 38 37 37 36 37
24 24 24 24 23 23 23 23 23 23 23 24 25 25 26 26 26 27 27 27 27 28 28 28 28 27 27 27 28 28 29 30 31 33 34 35 37 37 35 36 39 39 38 37 36 37 39 41 41 40 42 44 44 42 42 43 45 46 46 46 46 46 46 45 44 42 42 41 40 41 41 40 39 38 37 37 39 40 39 36 33 33 33 34 36
23 23 23 23 23 23 23 23 23 23 23 24 24 24 25 25 25 25 26 26 27 27 27 28 28 28 28 28 29 29 30 31 32 32 33 34 36 36 35 35 37 38 38 37 37 38 40 41 42 43 44 45 45 45 45 47 48 47 48 47 46 46 46 44 43 44 43 41 39 39 39 37 35 35 36 36 37 38 37 34 31 31 33 35 35
22 22 22 22 22 22 22 22 22 23 23 23 24 24 24 25 25 25 25 25 26 26 27 27 28 28 29 29 29 30 31 32 32 33 34 34 35 35 34 34 35 36 36 36 37 38 39 39 40 42 45 47 47 46 46 46 46 45 46 46 45 46 47 46 45 44 41 37 36 36 36 35 34 34 34 34 35 36 35 33 32 33 33 33 32
21 21 21 21 21 22 22 22 22 22 23 23 24 24 24 25 25 25 25 25 25 26 27 27 28 29 30 30 31 31 32 32 33 34 35 35 36 35 34 34 34 35 35 36 36 37 37 38 39 41 43 44 44 43 43 45 47 48 48 47 48 50 50 46 43 40 36 34 35 35 36 37 36 34 34 34 34 33 33 33 34 34 32 31 31
20 20 20 21 21 21 21 21 21 22 22 23 23 23 24 24 24 24 25 25 25 26 27 28 29 30 31 32 32 33 33 33 34 34 35 36 36 36 35 34 33 34 34 35 35 35 35 36 37 38 41 42 41 40 38 41 50 56 52 47 47 52 50 43 38 36 34 34 35 37 37 38 36 34 33 32 32 32 33 34 34 32 31 31 31
20 20 20 20 20 19 20 20 20 21 22 22 23 23 23 23 23 24 24 24 24 25 26 27 28 29 30 31 32 33 34 35 35 35 35 35 36 36 35 34 33 33 33 33 34 34 34 34 33 34 38 38 38 40 42 41 48 57 58 53 54 56 53 43 35 32 33 34 34 34 34 34 33 31 30 30 31 33 34 34 33 32 31 32 31
19 19 19 19 19 18 19 19 19 20 20 21 22 22 22 23 23 23 23 22 23 23 24 25 26 27 29 30 31 32 33 34 34 35 35 35 35 35 35 34 33 33 32 33 34 34 33 34 34 33 34 33 31 37 43 42 41 50 57 57 58 62 58 47 35 30 31 31 30 30 30 30 29 28 29 30 32 32 32 32 31 29 27 25 23
18 18 18 18 18 18 18 18 18 18 19 19 20 21 21 21 21 21 20 20 20 21 21 22 23 24 25 27 28 29 30 30 31 32 33 34 34 34 34 33 32 32 32 33 35 35 33 32 32 30 30 32 32 34 36 35 38 42 45 38 34 41 45 40 33 30 28 26 25 27 28 28 28 28 29 29 28 27 26 24 21 18 16 15 14
17 17 17 17 17 17 17 17 17 16 16 16 17 17 17 18 18 17 17 17 18 18 18 19 19 19 19 19 20 22 23 24 26 27 28 29 30 31 31 31 30 30 30 31 33 33 32 31 30 27 26 29 34 37 37 34 34 37 35 26 28 31 32 34 33 30 27 25 26 28 28 27 27 26 24 22 20 18 16 15 13 12 11 11 12
16 16 16 16 16 16 16 15 15 14 14 13 13 13 13 14 14 14 15 15 15 15 15 15 15 15 15 14 14 14 15 16 18 19 20 22 23 24 25 25 25 26 26 28 30 31 31 30 29 27 26 25 25 27 28 28 28 29 31 34 37 35 36 37 34 29 26 26 26 25 23 21 18 16 14 13 12 11 11 11 12 12 12 13 15
15 15 15 15 15 15 14 14 14 13 12 11 11 11 12 12 12 12 12 12 11 11 10 10 10 10 11 11 11 11 11 11 12 13 14 15 16 17 18 19 20 21 22 24 26 27 27 25 23 22 21 19 18 21 24 26 27 30 33 33 31 29 27 26 23 20 19 18 16 14 12 10 9 8 8 9 9 10 11 12 13 14 15 16 17
15 14 14 14 14 14 13 13 13 12 11 11 11 11 11 11 10 10 9 9 8 7 7 6 6 6 6 7 8 8 9 10 10 11 11 12 12 13 14 14 16 17 18 19 19 20 20 20 19 20 20 20 22 26 28 28 25 22 20 21 23 22 18 15 13 12 11 11 10 9 8 7 7 7 8 9 10 11 12 13 14 16 17 18 18
14 13 13 13 13 13 12 12 12 12 11 10 10 9 9 9 8 7 6 5 4 4 3 3 4 4 5 5 6 6 6 7 8 8 9 9 9 10 10 10 11 11 12 12 12 13 14 15 15 17 19 21 23 25 23 19 15 13 13 15 16 15 13 12 11 10 9 9 8 7 6 6 7 8 9 10 11 12 13 15 16 17 18 19 20
13 12 12 12 12 12 11 11 11 11 10 9 8 7 7 6 5 5 4 3 2 1 1 1 3 4 4 5 5 5 5 5 5 5 6 5 5 5 5 5 5 6 6 6 7 7 9 10 10 11 13 14 16 15 13 10 8 7 7 7 8 9 10 10 9 8 9 8 8 7 7 7 8 9 10 12 13 14 15 16 17 18 20 21 21
12 11 11 12 12 11 11 11 11 10 9 9 8 7 6 5 5 4 3 2 2 1 1 1 3 4 4 5 6 6 6 6 5 6 6 6 5 4 4 4 3 3 3 3 3 3 4 5 5 6 7 7 8 8 8 7 7 6 5 5 5 6 7 7 8 8 8 8 8 8 9 9 10 11 13 14 15 16 17 18 18 19 20 21 22
11 10 10 12 12 11 11 11 11 10 9 9 8 7 6 5 4 3 3 2 2 1 2 2 3 4 5 5 6 6 6 6 6 6 6 6 6 6 6 5 5 4 3 2 1 0 2 3 3 4 4 5 6 6 6 7 7 7 7 6 6 6 6 7 7 8 8 9 10 10 11 12 13 14 15 16 16 17 18 19 20 20 21 22 22
10 9 10 12 12 12 11 11 11 10 9 9 8 6 5 4 4 3 2 2 2 3 3 3 3 4 4 5 5 5 6 6 6 6 6 6 6 5 5 4 4 3 1 1 1 1 2 3 4 5 6 6 7 8 8 9 9 9 9 9 9 9 8 8 9 9 10 11 12 13 14 15 15 16 17 18 18 19 20 20 21 21 22 23 24
10 10 11 12 13 12 11 11 11 10 9 9 8 7 6 5 4 4 4 4 4 4 4 4 4 4 4 4 5 5 5 5 5 5 5 5 5 5 5 5 4 4 4 4 4 4 4 5 6 7 8 8 9 9 10 10 11 11 12 12 12 12 12 12 12 13 13 14 14 15 16 17 18 19 20 20 20 21 21 22 23 23 24 25 26
11 12 12 13 14 13 13 12 12 11 10 10 9 8 7 7 6 6 6 6 6 6 6 5 5 5 5 5 6 6 7 7 7 6 6 6 6 6 6 7 7 7 8 8 7 7 7 8 9 10 10 11 11 11 12 12 13 13 13 13 14 14 15 15 16 16 17 17 17 18 19 19 20 20 21 21 22 22 23 23 24 25 26 27 27
13 14 15 15 15 15 14 13 13 12 12 12 11 11 10 10 10 9 8 8 8 8 8 7 7 6 6 7 7 8 9 9 9 9 9 9 9 9 9 9 10 10 10 10 10 10 10 11 12 12 13 13 13 13 14 14 14 14 14 15 15 16 16 17 18 18 19 19 20 20 21 21 21 21 22 22 23 23 24 24 25 26 27 28 29
14 16 17 18 17 17 16 15 13 13 13 14 14 13 13 13 13 13 12 11 11 11 11 10 10 9 9 9 9 9 10 10 11 11 11 12 12 12 12 12 12 13 13 13 13 13 13 13 14 14 14 15 15 15 15 15 15 15 16 16 17 18 18 19 19 19 20 20 21 22 22 22 22 22 23 23 24 24 25 26 26 27 28 29 30
14 16 18 18 19 18 17 16 15 15 15 16 16 16 16 16 16 16 15 14 14 13 13 13 13 12 12 12 12 12 12 12 13 13 14 14 14 14 15 15 15 16 16 16 16 16 15 15 15 15 16 16 16 16 15 16 16 17 18 19 19 20 20 20 21 21 22 22 22 22 23 23 23 23 23 24 25 25 26 27 28 29 30 31 32
14 15 16 18 19 19 19 18 18 18 18 18 18 18 19 19 19 19 19 18 16 15 14 14 14 14 15 15 15 15 15 15 15 15 16 16 16 17 17 17 18 18 18 18 18 17 17 16 16 16 16 16 16 16 16 17 18 19 20 21 21 21 21 22 22 22 23 23 24 24 24 24 24 24 25 25 26 27 28 29 30 31 32 33 33
15 15 16 17 19 20 20 19 19 19 19 19 19 20 21 21 22 21 21 20 19 17 16 16 16 16 16 16 17 18 18 18 17 17 18 18 18 19 18 18 18 19 19 19 18 18 17 17 17 17 17 18 18 18 18 19 20 21 22 22 22 22 23 23 24 24 25 25 25 25 25 26 26 26 27 28 28 29 30 31 32 33 33 34 35
16 16 17 18 19 20 20 20 21 21 22 22 21 21 22 22 22 22 22 21 21 20 19 19 19 18 18 19 19 20 20 21 20 20 20 20 20 20 19 19 19 19 18 18 18 18 18 17 17 18 19 20 21 21 22 22 22 23 23 24 24 24 25 26 26 26 26 26 26 27 27 28 28 29 29 30 30 31 32 33 34 35 36 36 37
17 17 18 18 18 19 19 20 21 22 23 23 22 22 22 22 23 22 22 22 22 22 22 22 22 21 21 22 22 22 22 23 23 22 22 21 21 20 20 19 19 18 18 18 18 18 18 18 19 19 21 22 23 24 24 24 24 24 24 24 25 26 27 28 28 28 28 28 28 28 28 29 30 31 31 32 32 33 34 35 35 36 37 38 39
17 18 18 18 18 18 18 19 20 20 20 21 21 21 21 22 22 22 22 22 22 23 23 24 24 24 24 24 24 24 24 24 24 23 22 22 21 21 21 20 20 19 19 19 19 19 19 20 21 22 23 24 25 25 25 25 25 25 25 26 27 28 29 29 30 29 29 29 29 29 30 31 31 32 33 33 34 35 35 36 37 38 39 40 40
18 18 18 17 17 17 17 17 18 19 19 19 19 20 21 21 21 21 22 22 23 23 24 25 26 25 25 25 25 25 25 25 24 23 23 22 22 22 22 21 21 21 20 20 21 21 21 22 23 24 25 25 26 26 26 26 26 26 27 28 28 29 30 30 30 30 30 30 31 31 32 32 33 34 34 35 36 36 37 38 39 40 40 41 41
18 19 18 18 17 17 17 18 18 18 18 19 19 20 21 22 22 22 23 23 23 23 24 24 25 25 25 25 25 25 26 25 24 23 22 22 22 22 22 22 22 22 22 22 23 23 24 25 26 26 27 27 27 27 27 27 27 28 28 29 30 31 31 31 31 31 31 31 32 32 33 33 34 35 35 36 37 38 39 40 40 41 42 42 42
19 19 20 19 19 19 19 19 19 18 18 19 20 21 21 21 21 21 22 22 23 24 24 24 24 24 24 24 25 26 26 25 24 23 22 22 22 23 23 23 24 24 24 25 25 26 26 27 28 29 29 28 28 28 28 28 29 29 30 31 32 32 32 31 31 31 32 32 33 33 34 34 35 36 36 37 38 39 40 41 41 42 42 43 43
Wind_Direction
249 247 247 249 251 248 243 241 241 237 230 226 229 232 230 226 223 223 226 232 235 237 239 239 237 238 239 239 240 239 238 238 239 238 237 237 238 241 244 246 245 244 242 240 239 241 243 245 245 244 245 246 246 245 243 242 240 237 234 231 232 237 241 246 251 255 258 252 256 276 292 308 315 316 316 313 309 306 308 315 324 324 322 322 318
248 248 249 250 251 248 244 243 243 242 236 228 224 227 230 231 230 228 228 233 238 242 244 243 241 240 240 241 242 242 242 242 241 241 241 241 242 244 246 248 248 247 246 244 243 244 244 246 247 248 249 249 247 246 245 245 246 244 242 240 240 240 240 244 251 255 264 272 278 285 292 295 300 306 310 308 303 302 303 306 310 314 315 318 322
246 248 249 251 251 251 248 245 244 244 242 235 227 223 224 226 229 231 231 233 238 244 247 246 245 244 244 243 243 244 245 245 244 244 245 246 247 248 249 251 251 250 250 248 246 246 246 246 246 248 248 245 244 245 245 245 249 250 246 241 242 245 243 243 248 255 265 279 288 294 296 297 300 302 303 303 303 303 304 305 308 312 312 311 314
244 246 248 249 250 252 251 248 246 244 242 239 233 227 224 224 225 227 232 233 235 240 245 248 249 248 248 248 247 247 247 248 248 248 249 250 252 253 254 255 255 254 253 252 250 250 249 247 246 245 244 243 243 245 246 246 250 254 252 247 244 247 248 249 251 253 257 264 274 283 290 297 301 302 302 303 304 305 308 309 309 310 310 307 307
244 244 247 248 248 250 251 251 251 249 244 240 238 233 229 227 226 227 231 233 233 235 239 244 248 250 252 252 252 253 253 253 252 251 251 251 253 254 255 255 256 257 256 256 254 254 253 252 249 247 247 246 245 245 247 250 254 257 259 259 256 254 256 258 257 255 255 257 262 269 276 283 289 294 298 302 305 306 307 307 306 307 309 307 304
248 245 247 249 248 249 250 251 255 256 246 238 238 239 237 235 233 232 234 236 237 238 238 239 242 246 250 253 255 257 258 258 257 256 255 253 252 252 253 254 256 257 258 258 258 258 259 258 257 255 253 252 249 248 250 253 255 256 259 263 265 267 267 266 264 262 262 263 266 270 273 275 278 283 288 293 299 303 304 305 303 302 303 303 301
257 252 250 251 251 250 249 249 252 256 247 237 237 241 242 242 239 237 237 238 240 244 244 242 241 241 244 248 251 254 255 257 258 258 257 255 253 252 252 252 253 255 257 258 259 261 262 262 261 259 256 253 251 249 251 253 254 256 258 260 265 270 271 271 271 270 270 271 272 274 277 278 280 282 285 291 297 301 303 303 302 299 297 295 294
261 258 254 253 254 254 251 248 248 248 245 239 238 240 240 239 238 237 237 238 239 242 245 246 245 244 245 245 247 248 250 253 254 255 255 255 254 253 253 253 253 253 255 256 258 259 260 260 259 258 256 253 250 249 249 251 254 259 263 266 269 272 272 273 273 272 273 274 274 274 276 277 279 282 284 288 293 296 298 298 297 294 291 288 288
263 262 258 256 256 255 256 254 249 246 243 241 240 240 239 237 235 235 236 238 239 241 243 245 246 246 247 247 247 247 248 250 251 252 253 253 254 255 255 255 255 255 255 255 256 256 256 256 256 256 256 254 252 251 251 251 254 257 262 266 269 272 273 274 273 273 276 275 272 270 270 271 274 277 281 283 284 286 288 289 289 288 286 284 283
267 263 261 260 259 257 257 257 254 249 244 241 241 240 239 237 235 235 236 238 240 242 243 245 245 246 246 247 248 249 249 251 251 251 251 251 253 254 255 256 257 257 256 255 254 253 252 252 251 252 253 253 254 254 254 254 255 257 260 265 269 271 272 272 270 271 274 274 271 268 267 268 270 272 275 277 278 279 280 282 283 282 282 282 282
272 266 262 260 260 259 257 256 256 253 247 243 242 241 241 240 239 238 238 238 241 243 244 245 246 246 246 247 248 249 251 253 254 254 253 252 252 252 253 255 256 257 257 256 256 256 255 254 253 253 254 254 255 257 257 258 258 259 261 264 268 270 271 271 269 268 268 269 269 268 267 267 270 271 272 274 276 278 280 281 280 279 279 280 282
278 274 267 261 258 258 257 256 255 254 250 246 244 243 243 242 242 241 240 240 241 242 243 245 246 246 247 248 249 250 250 252 254 255 256 255 254 253 253 254 255 256 257 258 258 259 259 259 258 257 257 257 258 259 260 260 260 261 261 263 265 268 269 270 269 268 267 266 267 267 267 269 272 274 275 277 278 280 282 283 282 280 279 280 282
280 279 275 267 259 255 255 254 253 252 251 249 247 246 244 242 242 242 241 241 242 242 243 244 245 246 248 249 250 251 251 252 254 255 256 257 257 255 254 254 255 256 257 259 261 261 262 262 262 261 261 262 261 261 261 262 263 264 264 265 265 265 266 268 270 270 269 268 268 269 270 272 275 277 279 281 283 284 284 284 283 282 282 283 283
282 277 276 274 267 258 253 251 250 249 249 249 249 248 246 244 244 244 243 242 241 242 242 243 244 245 247 248 249 250 251 253 256 257 258 258 258 257 257 257 256 257 258 259 260 262 263 264 264 264 265 265 264 263 264 265 265 266 266 267 266 266 267 268 269 270 270 271 271 272 273 274 276 278 281 283 284 285 286 286 284 283 283 282 279
286 279 274 273 271 264 256 251 249 247 245 245 247 249 248 246 245 246 247 246 244 242 242 243 244 244 245 246 247 249 251 253 256 258 260 259 259 258 259 259 258 258 258 258 259 261 262 264 264 266 268 269 268 266 265 266 265 264 265 267 268 269 269 269 269 269 270 271 271 272 273 274 277 279 281 283 284 284 285 285 283 281 279 275 272
287 284 277 272 270 268 261 254 250 248 245 242 243 246 249 248 247 246 248 249 249 246 244 243 243 244 245 245 245 247 251 253 255 257 259 260 260 259 259 257 257 258 259 259 260 261 264 265 266 267 267 267 268 267 267 266 265 264 265 267 268 270 270 270 270 269 269 270 271 272 273 274 276 278 279 280 281 282 283 282 281 279 276 273 271
285 284 280 273 269 268 265 259 252 250 248 245 242 242 245 248 249 248 248 249 251 250 249 247 245 245 245 246 246 248 250 253 254 255 256 257 258 258 258 257 256 258 259 260 262 264 266 266 267 266 265 265 266 268 267 266 266 266 266 266 268 269 270 270 271 271 270 270 271 273 274 275 276 277 278 278 278 279 279 278 277 276 275 273 273
282 281 278 275 271 269 269 264 256 251 249 247 245 243 243 245 248 249 250 249 250 251 252 252 250 249 248 248 249 249 250 252 253 254 254 255 255 256 257 257 257 258 259 261 263 264 264 265 267 269 268 266 266 267 267 268 268 268 267 268 268 268 268 269 269 270 270 272 273 273 274 275 275 276 277 278 279 278 277 275 274 273 273 273 274
279 278 276 273 271 270 270 267 261 254 250 248 247 246 245 245 246 248 250 251 251 251 251 253 254 255 254 253 251 250 250 250 251 252 253 254 255 256 256 257 258 260 261 261 261 263 264 265 266 267 268 269 270 271 272 272 272 271 271 270 268 266 265 265 267 268 269 271 272 273 274 274 275 277 278 279 279 277 275 274 274 273 273 273 275
276 275 273 270 269 270 270 269 265 259 253 249 248 247 247 247 247 247 248 250 252 253 252 252 253 255 255 255 253 251 250 250 250 251 252 253 254 255 256 258 261 261 260 258 259 263 267 268 266 264 266 269 272 274 275 275 274 272 271 270 269 267 264 263 264 266 267 268 270 272 273 275 275 276 277 277 276 276 276 276 274 273 273 274 275
272 272 270 268 267 267 269 269 267 262 257 253 250 248 248 248 249 249 248 249 251 253 254 254 253 253 253 254 254 253 252 252 251 251 251 253 254 254 256 260 261 260 259 258 259 261 264 266 267 266 266 267 269 271 273 273 271 269 268 269 270 271 270 269 267 265 264 266 269 271 273 275 276 275 272 272 273 275 277 277 275 273 273 273 274
270 270 269 268 266 266 267 269 268 264 259 255 252 251 249 249 250 251 251 251 251 252 254 255 255 255 254 253 254 254 254 254 253 253 252 253 254 255 256 257 259 259 258 259 260 261 261 261 263 265 266 266 266 267 270 272 271 270 270 269 268 270 271 271 268 266 266 266 269 272 274 277 277 272 267 268 271 275 278 279 276 274 274 275 277
272 271 270 268 267 267 267 267 266 264 260 257 254 253 252 251 250 251 251 252 252 252 253 254 255 256 255 255 254 254 255 255 255 256 256 255 255 256 255 256 258 259 258 258 259 260 260 260 261 263 265 266 265 266 268 270 271 273 274 274 272 270 269 270 270 271 270 269 271 275 275 274 273 270 266 266 270 276 279 279 275 275 278 281 282
275 273 271 270 269 267 267 266 265 263 260 258 256 255 254 253 253 252 251 251 252 253 254 254 255 256 256 256 256 255 256 256 256 257 257 256 257 257 256 256 257 259 259 259 258 259 260 260 261 263 264 266 268 269 270 274 277 279 279 276 271 266 265 267 270 271 271 271 272 273 270 269 270 272 271 271 273 275 277 276 277 280 284 284 281
277 275 274 272 269 267 266 265 263 261 259 257 256 255 254 254 254 253 253 252 253 254 255 256 256 257 258 258 258 257 257 257 257 257 257 258 258 258 257 257 256 257 259 259 259 260 260 260 262 265 267 270 271 273 277 280 280 280 280 275 270 270 270 268 266 267 268 268 265 262 261 265 269 272 275 276 275 273 274 276 279 282 282 279 276
280 277 275 272 270 268 266 263 261 260 259 258 257 256 255 255 255 255 255 255 256 257 258 259 259 260 260 260 259 259 258 258 258 258 259 259 260 260 259 258 257 257 258 258 260 261 261 262 265 267 268 269 268 268 270 265 259 263 275 279 275 273 273 266 261 264 265 262 260 259 261 267 270 272 274 273 270 270 273 276 277 277 275 273 272
281 278 275 272 270 268 265 262 260 259 259 259 259 258 257 257 257 257 257 258 258 259 260 261 262 262 263 262 262 261 260 259 258 258 258 259 260 260 260 258 257 257 257 258 260 261 262 265 266 265 265 266 267 267 263 254 245 249 259 266 264 263 266 265 261 262 265 266 268 268 268 271 272 271 271 269 269 272 274 274 273 270 268 268 268
280 277 274 272 270 267 265 262 261 260 260 260 261 261 260 260 259 259 259 259 259 260 260 261 262 263 264 265 265 264 263 261 260 259 258 258 258 259 260 259 258 257 256 257 258 260 265 266 263 262 262 262 264 262 254 248 245 240 236 235 237 242 250 256 257 260 269 274 274 272 271 272 272 271 271 270 270 270 269 267 266 265 264 265 267
279 276 273 271 269 266 264 263 262 261 261 262 262 262 261 261 261 261 260 260 261 262 264 265 266 267 267 267 268 267 266 265 263 261 259 258 258 258 259 259 258 256 255 255 257 261 267 267 263 265 266 262 261 259 254 258 262 244 225 220 230 237 241 247 252 261 271 272 269 267 267 268 268 267 268 268 267 266 265 264 264 264 263 264 266
277 274 272 270 268 266 264 263 262 262 263 263 262 261 260 260 260 261 262 263 266 269 271 273 275 275 274 272 271 270 270 269 267 264 262 261 260 260 261 262 262 260 258 256 257 262 269 274 274 278 282 276 272 271 270 267 257 237 229 253 283 278 264 260 261 266 269 266 263 262 260 260 262 264 265 267 267 267 266 264 264 266 267 271 275
276 273 270 268 266 265 264 262 262 262 261 261 261 260 259 257 257 259 261 264 269 272 276 279 282 283 283 281 280 279 278 277 275 272 269 268 267 266 267 267 267 266 262 259 261 265 272 280 283 283 288 287 277 267 258 248 241 247 263 280 285 279 271 269 270 271 271 267 266 264 261 261 264 266 267 269 268 267 268 270 274 279 283 286 288
276 272 269 267 265 264 263 262 261 260 258 259 261 261 261 259 258 258 260 262 265 269 273 278 280 281 282 282 282 283 283 283 283 281 278 276 275 273 274 272 271 270 267 263 265 267 270 275 277 277 279 274 252 243 249 257 268 282 289 285 278 275 274 275 278 279 278 278 279 279 279 277 274 270 269 268 268 270 275 280 283 286 287 288 288
275 272 269 267 264 262 260 259 259 258 259 261 265 265 265 265 263 263 262 263 267 270 273 278 284 289 293 293 290 288 285 282 283 282 281 281 280 277 277 275 272 270 268 265 263 264 265 266 265 265 268 264 254 258 272 283 290 293 288 280 282 288 292 294 296 296 296 299 298 295 293 286 279 276 276 276 278 282 284 285 286 286 286 287 287
276 272 269 264 260 257 255 255 255 257 259 262 264 262 262 262 261 262 263 266 274 285 297 312 328 338 342 341 336 329 316 302 295 291 288 286 285 281 279 278 274 270 266 264 262 263 264 266 265 264 267 269 270 275 284 291 293 288 281 279 284 292 300 307 310 309 306 302 298 296 297 291 288 288 287 286 286 286 285 284 285 285 286 287 287
277 271 263 256 251 247 248 249 250 252 253 253 251 246 243 243 241 239 238 234 233 258 320 4 19 20 19 17 14 9 360 344 331 325 319 312 305 302 299 295 287 281 278 280 282 281 278 277 276 273 272 272 275 280 290 300 300 290 280 277 282 289 296 300 301 301 301 302 305 308 306 300 295 290 286 284 284 283 283 284 285 286 286 286 287
277 267 254 245 238 235 240 244 246 244 240 237 233 227 222 221 219 219 222 222 222 250 340 27 35 34 32 28 25 22 18 15 11 8 7 8 8 9 11 11 3 353 346 335 321 303 291 284 279 275 275 277 280 285 295 307 314 316 313 307 301 298 298 300 303 307 309 309 309 307 302 296 292 287 284 284 285 285 286 286 285 285 286 286 287
274 262 246 234 227 226 233 240 242 239 233 229 226 222 219 219 220 221 230 248 267 297 333 9 27 33 33 29 24 21 17 14 15 17 19 20 22 24 26 29 32 35 38 39 42 225 243 257 266 275 287 297 305 310 314 319 324 328 329 328 322 314 308 304 302 301 301 300 299 297 294 291 289 287 287 287 286 286 285 284 284 285 286 288 290
265 254 242 230 221 220 229 237 240 239 238 236 235 234 234 238 243 248 259 281 292 306 324 344 2 12 17 18 15 11 7 4 3 5 7 9 11 12 11 14 18 23 14 313 273 262 263 270 277 284 291 298 305 311 316 319 323 324 322 319 315 310 305 301 297 295 295 294 292 290 290 289 289 289 289 288 288 288 287 287 287 288 289 291 293
252 242 236 229 221 218 224 232 236 237 240 243 246 249 252 258 266 273 279 287 295 304 312 324 336 344 349 350 346 342 341 339 337 338 340 342 341 339 336 332 326 317 306 296 289 285 285 286 285 286 287 290 294 298 302 305 307 307 307 306 305 303 302 300 299 298 296 295 294 293 292 291 290 290 289 289 289 288 287 287 287 287 289 291 293
247 234 228 225 222 221 223 229 234 237 242 248 253 257 261 264 268 272 276 281 287 292 295 301 310 316 320 322 321 319 317 316 315 314 315 315 312 309 307 306 303 297 294 294 294 291 288 284 282 283 284 285 287 289 291 291 291 291 291 293 294 295 296 297 297 298 297 297 296 294 292 290 289 288 287 286 285 284 285 285 286 287 290 291 293
243 232 226 223 223 223 224 228 234 240 247 253 258 262 265 267 268 270 273 276 278 279 280 283 288 294 298 301 304 305 305 305 306 305 304 303 301 299 296 294 293 291 289 288 287 285 282 281 281 281 282 284 285 286 286 286 286 286 287 288 289 290 292 294 294 295 295 294 294 293 292 291 289 287 286 285 284 284 285 286 287 289 292 294 296
239 233 228 225 224 226 227 230 236 243 249 254 259 262 266 268 269 271 273 275 276 276 275 274 274 275 278 280 284 287 289 291 293 294 295 295 294 293 292 291 289 288 287 285 283 280 279 279 281 282 283 284 285 286 287 288 289 290 291 293 294 295 295 295 295 294 294 294 293 292 291 290 288 287 286 285 285 286 287 289 291 293 295 297 299
242 237 232 228 228 230 232 234 240 245 249 253 257 262 267 270 272 272 273 273 274 275 275 275 273 271 269 269 270 272 274 277 280 282 284 286 286 287 287 288 288 287 287 287 286 286 285 285 285 286 287 287 288 290 292 293 294 294 295 296 297 297 298 298 298 298 297 296 294 292 291 289 288 287 287 287 288 290 292 295 296 297 298 300 301
246 241 235 231 231 233 236 240 243 245 246 249 254 260 265 270 273 273 271 270 270 271 274 277 277 275 272 270 270 272 273 275 277 279 280 281 282 283 284 284 285 286 287 288 289 289 290 289 289 288 288 289 289 291 292 293 295 296 297 298 299 300 301 301 300 299 298 296 294 293 292 291 291 290 291 292 293 295 297 298 298 298 299 300 301
246 242 237 234 233 235 238 241 244 246 247 249 253 257 261 266 269 269 268 266 267 269 273 277 278 279 277 276 275 275 277 278 280 282 283 284 283 283 284 285 285 286 287 289 290 291 291 291 291 291 292 292 293 294 296 297 298 299 300 301 302 303 303 302 301 299 298 297 296 295 295 295 295 295 295 296 296 297 298 298 298 299 300 301 303
244 242 239 238 237 237 238 240 243 246 249 251 254 256 259 262 263 264 263 264 265 267 271 274 275 275 276 276 276 276 278 279 281 283 284 284 284 284 285 286 287 288 288 289 290 290 291 292 293 294 295 297 297 298 299 300 301 302 302 302 302 302 301 300 300 299 298 298 298 298 297 297 297 297 297 297 297 298 298 299 300 301 302 303 304
244 243 241 240 240 240 241 242 243 246 248 250 252 255 257 260 261 261 260 261 263 266 269 271 272 272 273 275 276 277 278 280 282 283 284 284 283 283 284 285 286 285 285 285 285 286 287 289 291 293 295 297 298 299 300 301 301 301 300 299 299 299 300 299 299 299 299 298 298 297 296 296 296 297 297 297 297 298 299 300 301 301 302 303 303
248 246 244 242 242 242 243 245 247 249 250 251 252 255 257 259 261 262 261 259 260 263 265 268 270 272 273 274 275 276 278 280 282 283 284 284 284 284 285 285 285 284 283 283 283 285 287 289 291 293 295 297 298 299 299 299 299 298 298 298 298 298 298 298 298 298 298 297 296 296 296 296 296 296 297 297 298 299 299 300 300 301 301 302 302
251 250 249 247 245 245 245 247 248 251 253 255 256 258 260 261 263 264 265 265 264 264 264 266 269 271 272 272 273 275 278 281 282 283 284 284 285 285 285 285 284 284 284 285 286 287 289 290 292 294 296 297 297 298 297 297 296 296 296 297 297 297 297 297 296 296 296 296 295 295 295 296 296 297 297 298 299 299 299 299 299 300 300 300 300
254 254 253 252 251 250 249 250 250 252 254 257 258 260 262 263 264 265 266 268 268 267 266 266 267 267 268 270 272 276 279 280 281 282 283 283 283 283 283 283 283 283 284 286 287 289 290 292 294 296 297 297 297 296 295 295 295 295 295 296 296 295 295 294 294 295 295 295 296 296 296 297 297 298 298 298 298 298 298 298 299 299 299 299 299
254 255 256 256 255 253 253 254 254 255 256 258 259 261 262 263 264 264 265 266 267 268 268 267 266 265 266 268 272 276 278 279 279 280 280 280 280 280 280 281 283 284 286 287 288 290 292 295 296 297 297 297 296 295 294 293 293 294 294 295 295 294 294 294 295 295 296 296 296 296 296 297 297 297 297 297 297 297 297 298 298 298 298 298 298